User: anonymous   Login
Location: Arthez
(43.0833°N, 0.2500°W)
Time: 10:25:52
(UTC+00:00)
Language:

Cosmos 1300 - Orbit

View from above orbital plane
View from above orbital plane
View from above satellite
View from above satellite

Ground track
Ground track

The orbit data is extracted from the following two-line orbital elements,

1 12785U 81082A   22019.53983604  .00002398  00000-0  11465-3 0  9996
2 12785  82.5013 212.9441 0001902 124.7320 289.4428 15.18552175206003
Epoch (UTC): 19 January 2022 12:57:21
Eccentricity: 0.0001902
inclination: 82.5013°
perigee height: 509 km
apogee height: 511 km
right ascension of ascending node: 212.9441°
argument of perigee: 124.7320°
revolutions per day: 15.18552175
mean anomaly at epoch: 289.4428°
orbit number at epoch: 20600

The dashed part of the orbit path shows where the satellite is in the earth's shadow,  

DLR